Weather History for Norman, OK

Change the Weather History Date:

Thursday, May 2, 2013

  Actual Average Record
Temperature  
Mean Temperature 40 °F -  
Max Temperature 44 °F 77 °F 94 °F (1948)
Min Temperature 35 °F 51 °F 35 °F (2013)
Degree Days  
Heating Degree Days 26    
Moisture  
Dew Point 36 °F    
Average Humidity 89    
Maximum Humidity 100    
Minimum Humidity 70    
Precipitation  
Precipitation 0.13 in - - ()
Sea Level Pressure  
Sea Level Pressure 30.34 in    
Wind  
Wind Speed 21 mph (North)    
Max Wind Speed 31 mph    
Max Gust Speed 40 mph    
Visibility 10 miles    
Events Rain    
Averages and records for this station are not official NWS values.
T = Trace of Precipitation, MM = Missing Value Source: NWS Daily Summary

Daily Weather History Graph

Daily Weather History Graph

Search for Another Location

Airport:

Trip Planner

Search our weather history database for the weather conditions in past years. The results will help you decide how hot, cold, wet, or windy it might be!

Date:

Astronomy

May. 02, 2013 Rise Set
Actual Time 6:37 AM CDT 8:16 PM CDT
Civil Twilight 6:10 AM CDT 8:44 PM CDT
Nautical Twilight 5:37 AM CDT 9:17 PM CDT
Astronomical Twilight 5:02 AM CDT 9:51 PM CDT
Moon 2:09 AM CDT (5/2) 1:23 PM CDT (5/2)
Length of Visible Light 14h 34m
Length of Day
13h 39m
Waning Gibbous, 47% of the Moon is Illuminated
May 2
Waning Gibbous
May 9
New
May 17
First Quarter
May 24
Full
May 31
Last Quarter

Hourly Weather History & Observations

Time (CDT) Temp. Windchill Dew Point Humidity Pressure Visibility Wind Dir Wind Speed Gust Speed Precip Events Conditions
12:15 AM 44.6 °F 36.6 °F 41.0 °F 87% 30.17 in 10.0 mi NNW 19.6 mph 27.6 mph N/A   Overcast
12:35 AM 44.6 °F 35.7 °F 41.0 °F 87% 30.18 in 10.0 mi NNW 24.2 mph 28.8 mph N/A   Overcast
12:55 AM 42.8 °F 33.8 °F 41.0 °F 93% 30.19 in 10.0 mi North 21.9 mph 32.2 mph N/A   Overcast
1:35 AM 42.8 °F 33.1 °F 39.2 °F 87% 30.21 in 10.0 mi NNW 25.3 mph 31.1 mph N/A   Overcast
1:55 AM 41.0 °F 32.2 °F 39.2 °F 93% 30.21 in 10.0 mi NNW 18.4 mph 27.6 mph N/A   Overcast
2:15 AM 41.0 °F 31.9 °F 39.2 °F 93% 30.21 in 10.0 mi North 19.6 mph 29.9 mph N/A   Overcast
2:35 AM 41.0 °F 31.6 °F 39.2 °F 93% 30.22 in 10.0 mi North 20.7 mph 26.5 mph N/A   Overcast
2:55 AM 41.0 °F 32.5 °F 39.2 °F 93% 30.23 in 10.0 mi NNW 17.3 mph 24.2 mph N/A   Overcast
3:15 AM 41.0 °F 30.9 °F 37.4 °F 87% 30.23 in 10.0 mi North 24.2 mph 28.8 mph N/A   Overcast
3:35 AM 41.0 °F 32.5 °F 39.2 °F 93% 30.24 in 10.0 mi NNW 17.3 mph 25.3 mph N/A   Overcast
3:55 AM 41.0 °F 32.2 °F 39.2 °F 93% 30.24 in 10.0 mi North 18.4 mph 26.5 mph N/A   Overcast
4:15 AM 41.0 °F 32.8 °F 37.4 °F 87% 30.24 in 10.0 mi North 16.1 mph 29.9 mph N/A   Overcast
4:35 AM 41.0 °F 31.1 °F 39.2 °F 93% 30.24 in 10.0 mi NNW 23.0 mph 27.6 mph N/A   Overcast
4:55 AM 41.0 °F 30.7 °F 37.4 °F 87% 30.24 in 10.0 mi NNW 25.3 mph 32.2 mph N/A   Overcast
5:15 AM 39.2 °F 28.7 °F 37.4 °F 93% 30.25 in 10.0 mi NNW 23.0 mph 31.1 mph N/A   Overcast
5:35 AM 39.2 °F 28.5 °F 37.4 °F 93% 30.26 in 10.0 mi NNW 24.2 mph 32.2 mph N/A   Overcast
5:55 AM 39.2 °F 29.6 °F 37.4 °F 93% 30.27 in 10.0 mi NNW 19.6 mph 25.3 mph N/A   Overcast
6:15 AM 39.2 °F 28.7 °F 37.4 °F 93% 30.27 in 10.0 mi NNW 23.0 mph 28.8 mph N/A   Overcast
6:35 AM 39.2 °F 28.0 °F 37.4 °F 93% 30.28 in 10.0 mi NNW 26.5 mph 31.1 mph N/A   Overcast
6:55 AM 39.2 °F 29.0 °F 37.4 °F 93% 30.29 in 7.0 mi NNW 21.9 mph 32.2 mph N/A   Overcast
7:15 AM 39.2 °F 29.3 °F 37.4 °F 93% 30.30 in 7.0 mi North 20.7 mph 35.7 mph N/A   Overcast
7:35 AM 39.2 °F 28.0 °F 37.4 °F 93% 30.31 in 10.0 mi North 26.5 mph 32.2 mph N/A   Overcast
7:55 AM 37.4 °F 26.1 °F 37.4 °F 100% 30.31 in 10.0 mi North 24.2 mph 32.2 mph N/A   Overcast
8:15 AM 39.2 °F 29.6 °F 37.4 °F 93% 30.31 in 10.0 mi North 19.6 mph 32.2 mph N/A   Overcast
8:35 AM 39.2 °F 28.7 °F 37.4 °F 93% 30.33 in 10.0 mi North 23.0 mph 29.9 mph N/A   Overcast
8:55 AM 39.2 °F 28.5 °F 37.4 °F 93% 30.34 in 10.0 mi North 24.2 mph 34.5 mph N/A   Overcast
9:15 AM 37.4 °F 26.4 °F 35.6 °F 93% 30.34 in 10.0 mi North 23.0 mph 32.2 mph N/A   Overcast
9:35 AM 41.0 °F 31.9 °F 35.6 °F 81% 30.34 in 10.0 mi North 19.6 mph 33.4 mph N/A   Overcast
9:55 AM 37.4 °F 25.9 °F 37.4 °F 100% 30.35 in 10.0 mi North 25.3 mph 29.9 mph N/A   Light Drizzle
10:15 AM 37.4 °F 26.6 °F 37.4 °F 100% 30.38 in 7.0 mi NNW 21.9 mph 27.6 mph N/A Rain Light Rain
10:35 AM 37.4 °F 25.6 °F 37.4 °F 100% 30.36 in 10.0 mi North 26.5 mph 35.7 mph 0.04 in Rain Light Rain
10:55 AM 37.4 °F 26.6 °F 37.4 °F 100% 30.35 in 5.0 mi North 21.9 mph 32.2 mph 0.08 in Rain Rain
11:15 AM 37.4 °F 27.2 °F 37.4 °F 100% 30.38 in 10.0 mi North 19.6 mph 28.8 mph 0.01 in Rain Light Rain
11:35 AM 37.4 °F 26.9 °F 37.4 °F 100% 30.38 in 10.0 mi North 20.7 mph 32.2 mph 0.02 in   Overcast
11:55 AM 39.2 °F 28.5 °F 37.4 °F 93% 30.38 in 10.0 mi North 24.2 mph 31.1 mph 0.02 in   Overcast
12:15 PM 37.4 °F 24.8 °F 37.4 °F 100% 30.39 in 10.0 mi North 31.1 mph 36.8 mph N/A   Overcast
12:35 PM 39.2 °F 27.8 °F 37.4 °F 93% 30.37 in 10.0 mi North 27.6 mph 36.8 mph N/A   Overcast
12:55 PM 37.4 °F 25.2 °F 37.4 °F 100% 30.37 in 10.0 mi North 28.8 mph 35.7 mph N/A   Overcast
1:15 PM 37.4 °F 26.4 °F 35.6 °F 93% 30.38 in 7.0 mi North 23.0 mph 34.5 mph N/A   Overcast
1:35 PM 37.4 °F 25.9 °F 35.6 °F 93% 30.38 in 10.0 mi North 25.3 mph 40.3 mph N/A   Overcast
1:55 PM 37.4 °F 25.2 °F 35.6 °F 93% 30.39 in 7.0 mi North 28.8 mph 36.8 mph N/A   Drizzle
2:15 PM 37.4 °F 27.5 °F 35.6 °F 93% 30.40 in 2.0 mi North 18.4 mph 29.9 mph 0.02 in Rain Light Rain
2:35 PM 37.4 °F 26.9 °F 35.6 °F 93% 30.40 in 4.0 mi North 20.7 mph 33.4 mph 0.02 in Rain Light Rain
2:55 PM 37.4 °F 27.5 °F 35.6 °F 93% 30.40 in 10.0 mi North 18.4 mph 28.8 mph 0.02 in Rain Light Rain
3:15 PM 37.4 °F 26.1 °F 37.4 °F 100% 30.40 in 10.0 mi North 24.2 mph 31.1 mph 0.01 in   Overcast
3:35 PM 37.4 °F 26.9 °F 37.4 °F 100% 30.41 in 10.0 mi North 20.7 mph 31.1 mph 0.01 in   Overcast
3:55 PM 39.2 °F 29.6 °F 37.4 °F 93% 30.41 in 10.0 mi North 19.6 mph 32.2 mph 0.01 in   Overcast
4:15 PM 39.2 °F 27.8 °F 37.4 °F 93% 30.40 in 10.0 mi North 27.6 mph 35.7 mph N/A   Overcast
4:35 PM 39.2 °F 29.0 °F 35.6 °F 87% 30.40 in 10.0 mi North 21.9 mph 34.5 mph N/A   Overcast
4:55 PM 41.0 °F 32.5 °F 35.6 °F 81% 30.40 in 10.0 mi North 17.3 mph 35.7 mph N/A   Overcast
5:15 PM 41.0 °F 32.5 °F 35.6 °F 81% 30.39 in 10.0 mi North 17.3 mph 28.8 mph N/A   Overcast
5:35 PM 42.8 °F 34.3 °F 37.4 °F 81% 30.39 in 10.0 mi North 19.6 mph 32.2 mph N/A   Overcast
5:55 PM 42.8 °F 32.9 °F 35.6 °F 76% 30.39 in 10.0 mi North 26.5 mph 35.7 mph N/A   Overcast
6:15 PM 44.6 °F 35.3 °F 35.6 °F 71% 30.38 in 10.0 mi North 26.5 mph 34.5 mph N/A   Overcast
6:35 PM 44.6 °F 35.7 °F 35.6 °F 71% 30.38 in 10.0 mi North 24.2 mph 31.1 mph N/A   Overcast
6:55 PM 42.8 °F 33.8 °F 33.8 °F 70% 30.39 in 10.0 mi North 21.9 mph 31.1 mph N/A   Mostly Cloudy
7:15 PM 42.8 °F 32.9 °F 33.8 °F 70% 30.39 in 10.0 mi North 26.5 mph 34.5 mph N/A   Scattered Clouds
7:35 PM 42.8 °F 34.8 °F 33.8 °F 70% 30.38 in 10.0 mi North 17.3 mph 29.9 mph N/A   Mostly Cloudy
7:55 PM 42.8 °F 35.8 °F 33.8 °F 70% 30.39 in 10.0 mi North 13.8 mph - N/A   Scattered Clouds
8:15 PM 41.0 °F 34.3 °F 32.0 °F 70% 30.39 in 10.0 mi North 11.5 mph 19.6 mph N/A   Scattered Clouds
8:35 PM 41.0 °F 34.7 °F 33.8 °F 76% 30.40 in 10.0 mi North 10.4 mph - N/A   Clear
8:55 PM 41.0 °F 35.2 °F 33.8 °F 76% 30.40 in 10.0 mi North 9.2 mph - N/A   Clear
9:15 PM 39.2 °F 32.5 °F 33.8 °F 81% 30.40 in 10.0 mi North 10.4 mph - N/A   Clear
9:35 PM 39.2 °F 33.0 °F 33.8 °F 81% 30.40 in 10.0 mi North 9.2 mph - N/A   Clear
9:55 PM 39.2 °F 33.0 °F 33.8 °F 81% 30.40 in 10.0 mi North 9.2 mph - N/A   Clear
10:15 PM 37.4 °F 31.4 °F 33.8 °F 87% 30.40 in 10.0 mi North 8.1 mph - N/A   Clear
10:35 PM 37.4 °F 31.4 °F 33.8 °F 87% 30.40 in 10.0 mi North 8.1 mph - N/A   Clear
10:55 PM 35.6 °F 29.9 °F 32.0 °F 87% 30.40 in 10.0 mi North 6.9 mph - N/A   Clear
11:15 PM 35.6 °F 30.7 °F 32.0 °F 87% 30.39 in 10.0 mi North 5.8 mph - N/A   Clear
11:35 PM 35.6 °F 30.7 °F 32.0 °F 87% 30.39 in 10.0 mi North 5.8 mph - N/A   Clear
11:55 PM 35.6 °F 30.7 °F 32.0 °F 87% 30.38 in 10.0 mi North 5.8 mph - N/A   Clear